Location: G�yn�k
(36.6721°N, 30.5542°E)
Time: 20:22:24
(UTC+00:00)

BREEZE-M DEB (TANK) - Pass Details

Date: 01 October 2020
Orbit: 333 x 12040 km, 49.7° (Epoch: 26 October)

Event Time Altitude Azimuth Distance (km) Brightness Sun altitude
Rises 02:58:26 0° 212° (SSW) 13,938 8.9 -11.8°
Reaches altitude 10° 03:09:34 10° 212° (SSW) 14,102 8.9 -9.6°
Maximum altitude 04:50:41 90° 314° (NW) 8,789 8.4 10.6°
Drops below altitude 10° 05:24:35 10° 55° (NE) 6,700 8.2 17.1°
Sets 05:27:42 0° 56° (NE) 7,002 8.3 17.7°
